TimePST,TemperatureF,Dew PointF,Humidity,Sea Level PressureIn,VisibilityMPH,Wind Direction,Wind SpeedMPH,Gust SpeedMPH,PrecipitationIn,Events,Conditions,WindDirDegrees,DateUTC
12:53 AM,37.9,33.1,83,29.83,10.0,Calm,Calm,-,N/A,,Clear,0,2013-02-20 08:53:00
1:53 AM,36.0,32.0,86,29.84,10.0,Calm,Calm,-,N/A,,Clear,0,2013-02-20 09:53:00
2:53 AM,35.1,30.9,85,29.85,10.0,Variable,3.5,-,N/A,,Clear,0,2013-02-20 10:53:00
3:53 AM,34.0,30.9,89,29.86,10.0,Variable,3.5,-,N/A,,Clear,0,2013-02-20 11:53:00
4:53 AM,35.1,30.9,85,29.88,10.0,Calm,Calm,-,N/A,,Clear,0,2013-02-20 12:53:00
5:53 AM,33.1,30.0,89,29.89,10.0,SE,3.5,-,N/A,,Clear,130,2013-02-20 13:53:00
6:53 AM,33.1,30.0,89,29.90,10.0,Calm,Calm,-,N/A,,Clear,0,2013-02-20 14:53:00
7:53 AM,37.0,32.0,82,29.93,10.0,SE,3.5,-,N/A,,Clear,130,2013-02-20 15:53:00
8:53 AM,43.0,33.1,68,29.95,10.0,SSE,3.5,-,N/A,,Clear,150,2013-02-20 16:53:00
9:53 AM,48.9,33.1,54,29.96,10.0,Calm,Calm,-,N/A,,Clear,0,2013-02-20 17:53:00
10:53 AM,53.1,30.9,43,29.96,10.0,West,11.5,-,N/A,,Clear,280,2013-02-20 18:53:00
11:53 AM,55.0,33.1,43,29.95,10.0,NW,12.7,-,N/A,,Clear,320,2013-02-20 19:53:00
12:53 PM,57.0,30.9,37,29.94,10.0,West,11.5,20.7,N/A,,Clear,280,2013-02-20 20:53:00
1:53 PM,57.0,32.0,39,29.93,10.0,WNW,11.5,-,N/A,,Clear,290,2013-02-20 21:53:00
2:53 PM,57.9,32.0,37,29.92,10.0,West,11.5,-,N/A,,Clear,280,2013-02-20 22:53:00
3:53 PM,57.9,33.1,39,29.92,10.0,West,13.8,-,N/A,,Clear,280,2013-02-20 23:53:00
5:53 PM,53.1,36.0,52,29.94,10.0,West,5.8,-,N/A,,Clear,260,2013-02-21 01:53:00
6:53 PM,50.0,37.9,63,29.96,10.0,SW,4.6,-,N/A,,Clear,220,2013-02-21 02:53:00
8:53 PM,46.9,37.0,68,30.00,10.0,SSW,4.6,-,N/A,,Clear,210,2013-02-21 04:53:00
9:53 PM,46.9,37.9,71,30.02,10.0,Calm,Calm,-,N/A,,Clear,0,2013-02-21 05:53:00
11:53 PM,44.1,36.0,73,30.02,10.0,SW,4.6,-,N/A,,Clear,230,2013-02-21 07:53:00